Klamath Falls, OR

4:46 AM PST on December 07, 2016 (GMT -0800)
Klamath Falls International

Weather History for KLMT - October, 2011

Change the Weather History Date:

Monday, October 31, 2011

  Actual Average Record
Temperature  
Mean Temperature 43 °F 41 °F  
Max Temperature 55 °F 54 °F 73 °F (1949)
Min Temperature 31 °F 28 °F 8 °F (2002)
Degree Days  
Heating Degree Days 22 24  
Month to date heating degree days 562 561  
Since 1 July heating degree days 785 916  
Cooling Degree Days 0 0  
Month to date cooling degree days 0 0  
Year to date cooling degree days 104 169  
Moisture  
Dew Point 32 °F    
Average Humidity 78    
Maximum Humidity 100    
Minimum Humidity 22    
Precipitation  
Precipitation 0.00 in 0.07 in 0.60 in (1997)
Month to date precipitation 0.54 1.05  
Year to date precipitation 6.14 11.32  
Sea Level Pressure  
Sea Level Pressure 30.20 in    
Wind  
Wind Speed 8 mph (NNW)    
Max Wind Speed 20 mph    
Max Gust Speed 23 mph    
Visibility 6 miles    
Events Fog    
T = Trace of Precipitation, MM = Missing Value Source: NWS Daily Summary

Daily Weather History Graph

Daily Weather History Graph

Search for Another Location

Airport or City:

Trip Planner

Search our weather history database for the weather conditions in past years. The results will help you decide how hot, cold, wet, or windy it might be!

Date:

Astronomy

Oct. 31, 2011 Rise Set
Actual Time 7:38 AM PDT 6:02 PM PDT
Civil Twilight 7:09 AM PDT 6:31 PM PDT
Nautical Twilight 6:36 AM PDT 7:04 PM PDT
Astronomical Twilight 6:03 AM PDT 7:36 PM PDT
Moon 12:51 PM PDT (10/31) 10:42 PM PDT (10/31)
Length of Visible Light 11h 21m
Length of Day
10h 23m
Waxing Crescent, 31% of the Moon is Illuminated
Oct 31
Waxing Crescent
Nov 2
First Quarter
Nov 10
Full
Nov 18
Last Quarter
Nov 24
New

Hourly Weather History & Observations

Time (PDT) Temp. Windchill Dew Point Humidity Pressure Visibility Wind Dir Wind Speed Gust Speed Precip Events Conditions
12:53 AM 41.0 °F - 39.0 °F 93% 30.18 in 10.0 mi Calm Calm - N/A   Clear
1:53 AM 37.0 °F - 37.0 °F 100% 30.18 in 8.0 mi Calm Calm - N/A   Clear
2:53 AM 36.0 °F - 35.1 °F 97% 30.17 in 8.0 mi Calm Calm - N/A   Clear
3:10 AM 35.6 °F - 35.6 °F 100% 30.21 in 1.8 mi Calm Calm - N/A   Scattered Clouds
3:24 AM 37.4 °F - 37.4 °F 100% 30.21 in 3.0 mi Calm Calm - N/A   Mostly Cloudy
3:53 AM 39.9 °F - 39.9 °F 100% 30.16 in 5.0 mi Calm Calm - N/A   Overcast
4:53 AM 41.0 °F - 39.9 °F 96% 30.16 in 10.0 mi Calm Calm - N/A   Mostly Cloudy
5:31 AM 39.2 °F - 39.2 °F 100% 30.20 in 1.8 mi Calm Calm - N/A   Clear
5:40 AM 37.4 °F - 37.4 °F 100% 30.20 in 0.8 mi Calm Calm - N/A   Mist
5:51 AM 35.6 °F 32.8 °F 35.6 °F 100% 30.21 in 0.2 mi NE 3.5 mph - N/A Fog Fog
5:53 AM 36.0 °F 32.1 °F 36.0 °F 100% 30.18 in 0.2 mi NNE 4.6 mph - N/A Fog Fog
6:00 AM 35.6 °F 31.7 °F 35.6 °F 100% 30.20 in 0.2 mi NNE 4.6 mph - N/A Fog Fog
6:11 AM 33.8 °F - 33.8 °F 100% 30.20 in 0.5 mi Calm Calm - N/A Fog Fog
6:18 AM 35.6 °F 32.8 °F 35.6 °F 100% 30.20 in 0.8 mi West 3.5 mph - N/A   Overcast
6:53 AM 33.1 °F 30.0 °F 33.1 °F 100% 30.19 in 0.5 mi East 3.5 mph - N/A Fog Fog
6:56 AM 32.0 °F - 32.0 °F 100% 30.21 in 0.5 mi Calm Calm - N/A Fog Fog
7:21 AM 32.0 °F - 32.0 °F 100% 30.21 in 2.5 mi Calm Calm - N/A   Mostly Cloudy
7:53 AM 32.0 °F - 32.0 °F 100% 30.21 in 2.5 mi Calm Calm - N/A   Mostly Cloudy
8:08 AM 33.8 °F - 33.8 °F 100% 30.23 in 5.0 mi Calm Calm - N/A   Mostly Cloudy
8:53 AM 39.9 °F - 39.9 °F 100% 30.22 in 10.0 mi Calm Calm - N/A   Mostly Cloudy
9:53 AM 46.9 °F - 37.0 °F 68% 30.22 in 10.0 mi NW 15.0 mph - N/A   Mostly Cloudy
10:53 AM 50.0 °F - 34.0 °F 54% 30.24 in 10.0 mi NW 12.7 mph - N/A   Mostly Cloudy
11:53 AM 51.1 °F - 28.0 °F 41% 30.23 in 10.0 mi NW 12.7 mph - N/A   Mostly Cloudy
12:53 PM 52.0 °F - 26.1 °F 37% 30.20 in 10.0 mi NNW 13.8 mph - N/A   Scattered Clouds
1:53 PM 55.0 °F - 24.1 °F 30% 30.18 in 10.0 mi NNW 13.8 mph 20.7 mph N/A   Scattered Clouds
2:53 PM 54.0 °F - 16.0 °F 22% 30.17 in 10.0 mi NNW 15.0 mph - N/A   Scattered Clouds
3:53 PM 54.0 °F - 23.0 °F 30% 30.16 in 10.0 mi NNW 17.3 mph - N/A   Scattered Clouds
4:53 PM 52.0 °F - 28.9 °F 41% 30.15 in 10.0 mi NW 17.3 mph - N/A   Scattered Clouds
5:53 PM 48.0 °F - 30.9 °F 52% 30.17 in 10.0 mi NNW 15.0 mph - N/A   Scattered Clouds
6:53 PM 44.6 °F 38.4 °F 32.0 °F 61% 30.19 in 10.0 mi NNW 12.7 mph - N/A   Partly Cloudy
7:53 PM 43.0 °F 36.4 °F 24.1 °F 47% 30.23 in 7.0 mi North 12.7 mph - N/A   Partly Cloudy
8:53 PM 37.0 °F 29.8 °F 24.1 °F 59% 30.26 in 7.0 mi NNW 10.4 mph - N/A   Clear
9:53 PM 35.1 °F 30.1 °F 25.0 °F 67% 30.25 in 7.0 mi North 5.8 mph - N/A   Clear
10:53 PM 33.1 °F 30.0 °F 24.1 °F 70% 30.27 in 10.0 mi North 3.5 mph - N/A   Clear
11:53 PM 34.0 °F 28.8 °F 24.1 °F 67% 30.28 in 10.0 mi NNW 5.8 mph - N/A   Clear